TimeAKST,TemperatureF,Dew PointF,Humidity,Sea Level PressureIn,VisibilityMPH,Wind Direction,Wind SpeedMPH,Gust SpeedMPH,PrecipitationIn,Events,Conditions,WindDirDegrees,DateUTC
12:53 AM,35.1,28.9,78,28.97,10.0,East,3.5,-,N/A,,Clear,80,2014-01-11 09:53:00
1:53 AM,35.1,28.9,78,28.99,10.0,NNE,5.8,-,N/A,,Clear,30,2014-01-11 10:53:00
3:53 AM,34.0,28.9,82,28.99,10.0,Variable,6.9,-,N/A,,Clear,0,2014-01-11 12:53:00
4:53 AM,35.1,27.0,72,29.00,10.0,NNE,12.7,-,N/A,,Clear,30,2014-01-11 13:53:00
5:53 AM,34.0,27.0,75,29.03,10.0,NNE,10.4,-,N/A,,Clear,30,2014-01-11 14:53:00
6:53 AM,33.1,28.0,82,29.05,10.0,North,3.5,-,N/A,,Scattered Clouds,350,2014-01-11 15:53:00
7:53 AM,32.0,28.0,85,29.09,10.0,Calm,Calm,-,N/A,,Partly Cloudy,0,2014-01-11 16:53:00
8:53 AM,30.9,28.9,92,29.14,10.0,Calm,Calm,-,N/A,,Clear,0,2014-01-11 17:53:00
11:53 AM,37.0,30.9,79,29.20,10.0,Variable,5.8,-,N/A,,Mostly Cloudy,0,2014-01-11 20:53:00
12:53 PM,37.0,32.0,82,29.23,10.0,WSW,10.4,17.3,0.00,Rain,Light Rain,250,2014-01-11 21:53:00
1:00 PM,36.0,33.1,89,29.24,7.0,West,8.1,-,0.01,Rain,Light Rain,260,2014-01-11 22:00:00
1:17 PM,36.0,34.0,93,29.25,10.0,SSW,3.5,-,0.01,,Overcast,200,2014-01-11 22:17:00
1:53 PM,37.0,32.0,82,29.26,10.0,Variable,6.9,-,0.01,,Partly Cloudy,0,2014-01-11 22:53:00
2:53 PM,37.0,30.0,76,29.31,10.0,SSW,3.5,-,N/A,,Partly Cloudy,200,2014-01-11 23:53:00
3:53 PM,36.0,30.0,79,29.34,10.0,WSW,6.9,-,0.00,,Partly Cloudy,240,2014-01-12 00:53:00
4:53 PM,35.1,30.9,85,29.36,10.0,South,4.6,-,N/A,,Mostly Cloudy,170,2014-01-12 01:53:00
5:14 PM,36.0,30.9,82,29.36,10.0,South,4.6,-,0.00,,Overcast,180,2014-01-12 02:14:00
5:29 PM,35.1,30.9,85,29.36,10.0,South,4.6,-,0.00,,Mostly Cloudy,180,2014-01-12 02:29:00
5:53 PM,36.0,32.0,86,29.37,10.0,South,4.6,-,0.00,Rain,Light Rain,190,2014-01-12 02:53:00
6:04 PM,35.1,32.0,89,29.38,5.0,SW,5.8,-,0.01,Snow,Light Snow,220,2014-01-12 03:04:00
6:13 PM,34.0,32.0,92,29.38,2.5,SSW,4.6,-,0.01,Snow,Light Snow,200,2014-01-12 03:13:00
6:18 PM,34.0,32.0,92,29.38,8.0,Variable,3.5,-,0.01,Snow,Light Snow,0,2014-01-12 03:18:00
6:31 PM,34.0,32.0,92,29.39,10.0,South,3.5,-,0.01,Snow,Light Snow,170,2014-01-12 03:31:00
6:42 PM,33.1,32.0,96,29.39,8.0,SSE,5.8,-,0.02,Snow,Light Snow,160,2014-01-12 03:42:00
6:53 PM,34.0,32.0,92,29.40,10.0,SSE,3.5,-,0.02,,Overcast,150,2014-01-12 03:53:00
7:01 PM,34.0,32.0,92,29.39,10.0,SSE,3.5,-,N/A,,Mostly Cloudy,160,2014-01-12 04:01:00
7:53 PM,33.1,32.0,96,29.40,10.0,SW,4.6,-,N/A,,Clear,230,2014-01-12 04:53:00
8:53 PM,35.1,30.9,85,29.42,10.0,Variable,5.8,-,N/A,,Overcast,0,2014-01-12 05:53:00
9:53 PM,35.1,30.9,85,29.43,10.0,SSE,4.6,-,N/A,,Mostly Cloudy,150,2014-01-12 06:53:00
10:10 PM,35.1,30.9,85,29.41,10.0,SSE,5.8,-,N/A,,Mostly Cloudy,150,2014-01-12 07:10:00
10:21 PM,35.1,30.9,85,29.41,10.0,Variable,3.5,-,N/A,,Mostly Cloudy,0,2014-01-12 07:21:00
10:53 PM,34.0,30.9,89,29.43,9.0,SW,5.8,-,0.00,Snow,Light Snow,220,2014-01-12 07:53:00
11:53 PM,36.0,32.0,86,29.41,10.0,Variable,3.5,-,0.00,,Overcast,0,2014-01-12 08:53:00